Погода в Зимовье

Россия / Новосибирская область     54°13′50″N   83°32′29″E
темп.,
°C
ветер,
м/с
пор.,
м/с
влажн.,
%
обл.,
%
осадки,
мм/ч
давл.,
гПа
погр.,
м
27 января, ср
ср2701:00−19ююв5997100 0.1 1033223
04:00−13ююз61294100 0.5 1030587
07:00−11ююз71394100 1.4 1027512
10:00−6юз81695100 1.8 1023687
13:00−4зюз101695100 3.8 1023834
16:00−3зюз101794100 1.4 1023832
19:00−4зюз91595100 3.3 1024720
22:00−4зюз81494100 0.8 1025653
28 января, чт
чт2801:00−5зюз71295100 1.4 1027498
04:00−6зюз51095100 1.0 1028418
07:00−6зюз5995100 1.4 1030326
10:00−7юз51095100 0.5 1030337
13:00−6юз61195100 1.2 1030444
16:00−5юз71292100 0.3 1028719
19:00−6юз61394100 0.4 1028565
22:00−8юз71493100 0.2 1027474
29 января, пт
пт2901:00−8юз81594100 0.3 1026447
04:00−7юз91793100 0.1 1024486
07:00−7юз91891100 0.1 1023604
10:00−6зюз91791100 0.1 1022717
13:00−5з81395100 1.1 1024856
16:00−4з71195100 1.5 1024724
19:00−5зюз51095100 2.0 1026505
22:00−5з5996100 0.7 1027471
30 января, сб
сб3001:00−6зюз4995100 1.1 1027376
04:00−7з4995100 0.2 1028348
07:00−8з4895100 0.4 1029297
10:00−8зюз3796100 0.4 1030297
13:00−7з3594100 0.7 1032304
16:00−7зсз2494100 0.2 1033340
19:00−10зсз1297100 0.3 103421
22:00−13всв129899 0.1 103520
31 января, вс
вс3101:00−13юв229799 0.1 103521
04:00−14юв339895 0.0 103427
07:00−15юв349897 0.1 103276
10:00−14юв4897100 0.0 1031150
13:00−10юв4795100 0.0 1029211
16:00−9юв3595100 0.0 1027181
19:00−10юв3393100 0.0 102651
22:00−10ююв3389100 0.0 102546